Weather History for KNTU - June, 2013

Change the Weather History Date:

Sunday, June 2, 2013

  Actual Average Record
Temperature  
Mean Temperature 80 °F -  
Max Temperature 88 °F 75 °F 93 °F (2011)
Min Temperature 71 °F 59 °F 48 °F (2014)
Cooling Degree Days 14    
Growing Degree Days 30 (Base 50)    
Moisture  
Dew Point 65 °F    
Average Humidity 63    
Maximum Humidity 84    
Minimum Humidity 43    
Precipitation  
Precipitation 0.00 in - - ()
Sea Level Pressure  
Sea Level Pressure 29.98 in    
Wind  
Wind Speed 13 mph (SSW)    
Max Wind Speed 20 mph    
Max Gust Speed 23 mph    
Visibility 10 miles    
Events      
Averages and records for this station are not official NWS values.
T = Trace of Precipitation, MM = Missing Value Source: NWS Daily Summary

Daily Weather History Graph

Daily Weather History Graph

Search for Another Location

Airport or City:

Trip Planner

Search our weather history database for the weather conditions in past years. The results will help you decide how hot, cold, wet, or windy it might be!

Date:

Astronomy

Jun. 02, 2013 Rise Set
Actual Time 5:46 AM EDT 8:18 PM EDT
Civil Twilight 5:15 AM EDT 8:48 PM EDT
Nautical Twilight 4:38 AM EDT 9:26 PM EDT
Astronomical Twilight 3:56 AM EDT 10:07 PM EDT
Moon 2:03 AM EDT (6/2) 2:54 PM EDT (6/2)
Length of Visible Light 15h 32m
Length of Day
14h 32m
Waning Crescent, 31% of the Moon is Illuminated
Jun 2
Waning Crescent
Jun 8
New
Jun 16
First Quarter
Jun 23
Full
Jun 30
Last Quarter

Hourly Weather History & Observations

Time (EDT) Temp. Heat Index Dew Point Humidity Pressure Visibility Wind Dir Wind Speed Gust Speed Precip Events Conditions
12:56 AM 75.0 °F - 66.0 °F 73% 30.04 in 10.0 mi SSW 11.5 mph - N/A   Clear
1:56 AM 73.9 °F - 66.0 °F 76% 30.03 in 10.0 mi SSW 13.8 mph - N/A   Clear
2:56 AM 73.0 °F - 64.9 °F 76% 30.02 in 10.0 mi SSW 13.8 mph - N/A   Clear
3:56 AM 73.0 °F - 64.9 °F 76% 30.01 in 10.0 mi SSW 10.4 mph - N/A   Clear
4:56 AM 72.0 °F - 64.9 °F 78% 30.00 in 10.0 mi SSW 13.8 mph - N/A   Clear
5:56 AM 71.1 °F - 66.0 °F 84% 30.01 in 10.0 mi SSW 11.5 mph - N/A   Clear
6:56 AM 72.0 °F - 66.9 °F 84% 30.01 in 10.0 mi SW 12.7 mph - N/A   Partly Cloudy
7:56 AM 75.0 °F - 66.9 °F 76% 30.01 in 10.0 mi SW 16.1 mph - N/A   Partly Cloudy
8:56 AM 77.0 °F - 66.0 °F 69% 30.01 in 10.0 mi SW 19.6 mph 23.0 mph N/A   Scattered Clouds
9:56 AM 80.1 °F 81.9 °F 64.9 °F 60% 30.01 in 10.0 mi WSW 17.3 mph 21.9 mph N/A   Scattered Clouds
10:56 AM 82.0 °F 84.1 °F 66.0 °F 58% 30.00 in 10.0 mi SW 13.8 mph - N/A   Scattered Clouds
11:56 AM 84.0 °F 85.8 °F 64.9 °F 53% 29.99 in 10.0 mi SW 17.3 mph 20.7 mph N/A   Mostly Cloudy
12:56 PM 84.9 °F 86.6 °F 64.9 °F 51% 29.99 in 10.0 mi South 16.1 mph 23.0 mph N/A   Mostly Cloudy
1:56 PM 87.1 °F 89.2 °F 66.0 °F 49% 29.97 in 10.0 mi South 15.0 mph - N/A   Mostly Cloudy
2:56 PM 87.1 °F 88.9 °F 64.9 °F 48% 29.96 in 10.0 mi SSW 16.1 mph - N/A   Mostly Cloudy
3:56 PM 88.0 °F 89.3 °F 64.0 °F 45% 29.95 in 10.0 mi SSW 17.3 mph 23.0 mph N/A   Mostly Cloudy
4:56 PM 88.0 °F 88.7 °F 63.0 °F 43% 29.93 in 10.0 mi SW 16.1 mph 23.0 mph N/A   Mostly Cloudy
5:56 PM 84.9 °F 86.6 °F 64.9 °F 51% 29.91 in 10.0 mi SSW 15.0 mph 19.6 mph N/A   Mostly Cloudy
6:56 PM 84.0 °F 86.3 °F 66.0 °F 55% 29.92 in 10.0 mi South 9.2 mph 19.6 mph N/A   Mostly Cloudy
7:56 PM 82.0 °F 83.8 °F 64.9 °F 56% 29.92 in 10.0 mi South 9.2 mph - N/A   Mostly Cloudy
8:56 PM 80.1 °F 81.9 °F 64.9 °F 60% 29.94 in 10.0 mi South 9.2 mph - N/A   Scattered Clouds
9:56 PM 79.0 °F - 64.9 °F 62% 29.96 in 10.0 mi SSW 11.5 mph - N/A   Scattered Clouds
10:56 PM 77.0 °F - 66.0 °F 69% 29.94 in 10.0 mi SSW 9.2 mph - N/A   Partly Cloudy
11:56 PM 75.9 °F - 64.9 °F 69% 29.94 in 10.0 mi SSW 16.1 mph - N/A   Mostly Cloudy